Voltar ao catálogo

GLOBALSTAR M002

AtivoComunicaçõesLEO
NORAD 25164·PAYLOAD·🇺🇸 United States

Lançado Feb 14, 1998 de Cape Canaveral Space Force Station

Loading…

Próximas Passagens (próximas 24 horas)

TLE

AtualizadoSource: Space-Track

Época: Sep 14, 2026, 04:51 UTC

1 25164U 98008C   26257.20224740 -.00000057  00000-0  37727-3 0  9998
2 25164  52.0002 181.8250 0000915 278.6437  81.4279 11.61517752236824

Acompanhe GLOBALSTAR M002 em tempo real com AllMySat

Download on the App Store